Fantasy — H3GS — position and weather

sailwx.info

Track history (hours):
 
Tides and Currents Weather Stations Pressure Air Temp Water Temp Dewpoint Dewpoint Depression Visibility Wind Speed Wind Dir Waves Ship Positions

Fantasy

Operator: Carnival Cruise Lines

Last reported at 2017-May-23 21:54 UTC. Time now 2017-May-25 02:57 UTC.
Position N 20°39' W 086°54'.

Type: Ship. MMSI: 353486000.

Date/timePositionNaut miles runAvg speedWind from/ knotsBaromVisibWave heightAir tempDewpointWater temp
2017-May-23 21:54N 20°39' W 086°54'820.3
2017-May-23 21:31N 20°32' W 086°58'4 7.8
2017-May-23 21:00N 20°29' W 086°59'0 0.0
2017-May-23 20:30N 20°29' W 086°59'0 0.0
2017-May-23 20:00N 20°29' W 086°59'0 0.0
2017-May-23 19:30N 20°29' W 086°59'0 0.0
2017-May-23 18:57N 20°29' W 086°59'0 0.0
2017-May-23 18:29N 20°29' W 086°59'0 0.0
2017-May-23 17:32N 20°29' W 086°59'0 0.0
2017-May-23 17:29N 20°29' W 086°59'0 0.0
2017-May-23 16:59N 20°29' W 086°59'0 0.0
2017-May-23 16:29N 20°29' W 086°59'0 0.0
2017-May-23 15:58N 20°29' W 086°59'0 0.0
2017-May-23 15:28N 20°29' W 086°59'0 0.0
2017-May-23 14:58N 20°29' W 086°59'0 0.0
2017-May-23 14:28N 20°29' W 086°59'0 0.0
2017-May-23 13:27N 20°29' W 086°59'0 0.0
2017-May-23 13:00N 20°29' W 086°59'0 0.2
2017-May-23 12:31N 20°29' W 086°59'2 4.4
2017-May-23 12:00N 20°29' W 087°01'5 9.6
2017-May-23 11:30N 20°26' W 087°05'510.6
2017-May-23 11:00N 20°21' W 087°08'37 1.5
2017-May-22 11:00N 20°00' W 086°36'7017.4 120 / 251015.010.8 26.023.128.0
2017-May-22 07:00N 21°06' W 086°12'21217.7 120 / 201016.010.8 25.020.528.0
2017-May-21 19:00N 24°36' W 086°42'24218.6 110 / 151015.010.8 27.024.129.0
2017-May-21 06:00N 28°36' W 087°18'66 1.9 150 / 181011.010.8 25.022.026.0
2017-May-19 20:00N 27°30' W 087°12'16918.8 100 / 281016.0 5.4 27.022.627.0
2017-May-19 11:00N 24°42' W 086°54'6120.3 110 / 281012.010.8 25.022.029.0
2017-May-19 08:00N 23°42' W 086°42'18618.4 100 / 201016.010.8 26.021.529.0
2017-May-18 21:52N 20°36' W 086°56'515.4
2017-May-18 21:30N 20°31' W 086°58'1 1.1
2017-May-18 20:59N 20°31' W 086°57'0 0.0
2017-May-18 20:29N 20°31' W 086°57'0 0.0
2017-May-18 19:59N 20°31' W 086°57'0 0.0
2017-May-18 19:26N 20°31' W 086°57'0 0.0
2017-May-18 18:59N 20°31' W 086°57'0 0.0
2017-May-18 18:28N 20°31' W 086°57'0 0.0
2017-May-18 18:00N 20°31' W 086°57'0 0.0
2017-May-18 17:28N 20°31' W 086°57'0 0.0
2017-May-18 16:52N 20°31' W 086°57'0 0.0
2017-May-18 16:27N 20°31' W 086°57'0 0.0
2017-May-18 16:00N 20°31' W 086°57'0 0.0
2017-May-18 15:30N 20°31' W 086°57'0 0.0
2017-May-18 15:00N 20°31' W 086°57'0 0.0
2017-May-18 13:59N 20°31' W 086°57'0 0.0
2017-May-18 13:29N 20°31' W 086°57'0 0.0
2017-May-18 13:00N 20°31' W 086°57'1 2.2
2017-May-18 12:30N 20°32' W 086°57'3 5.4
2017-May-18 12:00N 20°32' W 087°00'4 8.7
2017-May-18 11:30N 20°28' W 087°03'6 9.2
2017-May-18 10:51N 20°24' W 087°07'43 2.0
2017-May-17 13:00N 19°42' W 086°54'42016.2 070 / 151015.010.8 24.021.026.0
2017-May-16 11:00N 26°42' W 087°00'12221.8 080 / 151015.010.8 24.021.026.0
2017-May-16 05:23N 28°42' W 087°21'248 5.7
2017-May-14 10:00N 24°36' W 086°54'23920.3 040 / 201015.010.8 24.021.022.0
2017-May-13 22:15N 20°37' W 086°57'416.1
2017-May-13 22:00N 20°34' W 086°58'  
Track history (hours):
 
Tides and Currents Weather Stations Pressure Air Temp Water Temp Dewpoint Dewpoint Depression Visibility Wind Speed Wind Dir Waves Ship Positions

Fantasy

Operator: Carnival Cruise Lines

Last reported at 2017-May-23 21:54 UTC. Time now 2017-May-25 02:57 UTC.
Position N 20°39' W 086°54'.

Type: Ship. MMSI: 353486000.

Date/timePositionNaut miles runAvg speedWind from/ knotsBaromVisibWave heightAir tempDewpointWater temp
2017-May-23 21:54N 20°39' W 086°54'820.3
2017-May-23 21:31N 20°32' W 086°58'4 7.8
2017-May-23 21:00N 20°29' W 086°59'0 0.0
2017-May-23 20:30N 20°29' W 086°59'0 0.0
2017-May-23 20:00N 20°29' W 086°59'0 0.0
2017-May-23 19:30N 20°29' W 086°59'0 0.0
2017-May-23 18:57N 20°29' W 086°59'0 0.0
2017-May-23 18:29N 20°29' W 086°59'0 0.0
2017-May-23 17:32N 20°29' W 086°59'0 0.0
2017-May-23 17:29N 20°29' W 086°59'0 0.0
2017-May-23 16:59N 20°29' W 086°59'0 0.0
2017-May-23 16:29N 20°29' W 086°59'0 0.0
2017-May-23 15:58N 20°29' W 086°59'0 0.0
2017-May-23 15:28N 20°29' W 086°59'0 0.0
2017-May-23 14:58N 20°29' W 086°59'0 0.0
2017-May-23 14:28N 20°29' W 086°59'0 0.0
2017-May-23 13:27N 20°29' W 086°59'0 0.0
2017-May-23 13:00N 20°29' W 086°59'0 0.2
2017-May-23 12:31N 20°29' W 086°59'2 4.4
2017-May-23 12:00N 20°29' W 087°01'5 9.6
2017-May-23 11:30N 20°26' W 087°05'510.6
2017-May-23 11:00N 20°21' W 087°08'37 1.5
2017-May-22 11:00N 20°00' W 086°36'7017.4 120 / 251015.010.8 26.023.128.0
2017-May-22 07:00N 21°06' W 086°12'21217.7 120 / 201016.010.8 25.020.528.0
2017-May-21 19:00N 24°36' W 086°42'24218.6 110 / 151015.010.8 27.024.129.0
2017-May-21 06:00N 28°36' W 087°18'66 1.9 150 / 181011.010.8 25.022.026.0
2017-May-19 20:00N 27°30' W 087°12'16918.8 100 / 281016.0 5.4 27.022.627.0
2017-May-19 11:00N 24°42' W 086°54'6120.3 110 / 281012.010.8 25.022.029.0
2017-May-19 08:00N 23°42' W 086°42'18618.4 100 / 201016.010.8 26.021.529.0
2017-May-18 21:52N 20°36' W 086°56'515.4
2017-May-18 21:30N 20°31' W 086°58'1 1.1
2017-May-18 20:59N 20°31' W 086°57'0 0.0
2017-May-18 20:29N 20°31' W 086°57'0 0.0
2017-May-18 19:59N 20°31' W 086°57'0 0.0
2017-May-18 19:26N 20°31' W 086°57'0 0.0
2017-May-18 18:59N 20°31' W 086°57'0 0.0
2017-May-18 18:28N 20°31' W 086°57'0 0.0
2017-May-18 18:00N 20°31' W 086°57'0 0.0
2017-May-18 17:28N 20°31' W 086°57'0 0.0
2017-May-18 16:52N 20°31' W 086°57'0 0.0
2017-May-18 16:27N 20°31' W 086°57'0 0.0
2017-May-18 16:00N 20°31' W 086°57'0 0.0
2017-May-18 15:30N 20°31' W 086°57'0 0.0
2017-May-18 15:00N 20°31' W 086°57'0 0.0
2017-May-18 13:59N 20°31' W 086°57'0 0.0
2017-May-18 13:29N 20°31' W 086°57'0 0.0
2017-May-18 13:00N 20°31' W 086°57'1 2.2
2017-May-18 12:30N 20°32' W 086°57'3 5.4
2017-May-18 12:00N 20°32' W 087°00'4 8.7
2017-May-18 11:30N 20°28' W 087°03'6 9.2
2017-May-18 10:51N 20°24' W 087°07'43 2.0
2017-May-17 13:00N 19°42' W 086°54'42016.2 070 / 151015.010.8 24.021.026.0
2017-May-16 11:00N 26°42' W 087°00'12221.8 080 / 151015.010.8 24.021.026.0
2017-May-16 05:23N 28°42' W 087°21'248 5.7
2017-May-14 10:00N 24°36' W 086°54'23920.3 040 / 201015.010.8 24.021.022.0
2017-May-13 22:15N 20°37' W 086°57'416.1
2017-May-13 22:00N 20°34' W 086°58'  

Dump ship's entire track history